Home > Weather > Jaén > Past weeks

Flag for Spain Past Weather in Jaén, Spain — Yesterday and Last 2 Weeks

Now
64 °F

Clear.


Feels Like: 64 °F
Forecast: 60 / 92 °F
Wind: 1 mph from North

Location: Granada / Aeropuerto

Current Time: Aug 30, 2016 at 7:14:04 AM

Latest Report: Aug 30, 2016 at 6:30 AM


Visibility: 10 mi

Pressure: 30.09 "Hg (28.16 "Hg at 565m altitude)

Humidity: 56%

Dew Point: 48 °F

Location of JaénLocation

Past Weather in Jaén — Graph

°F

Jaén Temperature Yesterday

Maximum temperature yesterday: 100 °F (at 4:00 PM)
Minimum temperature yesterday: 63 °F (at 7:00 AM)
Average temperature yesterday: 81 °F

High & Low Weather Summary for the Past Weeks

 TemperatureHumidityPressure
High100 °F (Aug 28, 4:00 PM)94% (Aug 26, 7:00 AM)30.24 "Hg (Aug 26, 7:00 AM)
Low61 °F (Aug 25, 8:00 AM)11% (Aug 29, 5:30 PM)29.89 "Hg (Aug 18, 5:30 PM)
Average81 °F45%30.08 "Hg
* Reported Aug 15 6:00 AM — Aug 30 6:00 AM, Jaén, Weather by CustomWeather, © 2016

Note: Actual official high and low records may vary slightly from our data, if they occured in-between our weather recording intervals... More about our weather records

Advertising

Jaén Weather History for the Previous 24 Hours

Scroll right to see more
 ConditionsComfort  
Time TempWeatherWind HumidityBarometerVisibility
6:00 AM
Tue, Aug 30
66 °FClear.1 mph49%30.09 "Hg10 mi
5:30 AM68 °FMild.1 mph46%30.09 "HgN/A
5:00 AM68 °FMild.1 mph46%30.09 "HgN/A
4:30 AM68 °FMild.No wind49%30.09 "HgN/A
4:00 AM68 °FMild.No wind60%30.09 "HgN/A
3:30 AM70 °FMild.1 mph46%30.09 "HgN/A
3:00 AM72 °FMild.1 mph44%30.09 "HgN/A
2:30 AM70 °FMild.2 mph57%30.09 "HgN/A
2:00 AM73 °FMild.No wind36%30.12 "HgN/A
1:30 AM73 °FClear.No wind36%30.12 "Hg10 mi
1:00 AM75 °FMild.2 mph36%30.12 "HgN/A
12:30 AM77 °FPleasantly warm.2 mph30%30.12 "HgN/A
12:00 AM77 °FPleasantly warm.No wind30%30.12 "HgN/A
11:30 PM
Mon, Aug 29
81 °FPleasantly warm.No wind26%30.12 "HgN/A
11:00 PM82 °FClear.1 mph25%30.09 "Hg10 mi
10:30 PM81 °FPassing clouds.3 mph26%30.09 "HgN/A
10:00 PM84 °FClear.5 mph23%30.09 "Hg10 mi
9:00 PM88 °FSunny.7 mph21%30.07 "Hg10 mi
8:30 PM91 °FSunny.9 mph16%30.07 "Hg10 mi
8:00 PM93 °FPassing clouds.14 mph15%30.07 "HgN/A
7:30 PM95 °FSunny.16 mph13%30.07 "Hg10 mi
7:00 PM97 °FPassing clouds.15 mph13%30.07 "HgN/A
6:30 PM99 °FPassing clouds.16 mph13%30.07 "HgN/A
6:00 PM99 °FSunny.17 mph13%30.07 "Hg10 mi
5:30 PM100 °FPassing clouds.15 mph11%30.07 "HgN/A
4:30 PM100 °FPassing clouds.14 mph12%30.09 "HgN/A
4:00 PM100 °FPassing clouds.9 mph12%30.09 "HgN/A
3:30 PM99 °FSunny.8 mph15%30.09 "Hg10 mi
3:00 PM97 °FSunny.1 mph16%30.12 "Hg10 mi
2:30 PM97 °FSunny.3 mph14%30.12 "Hg10 mi
2:00 PM93 °FSunny.1 mph20%30.12 "Hg10 mi
1:30 PM93 °FSunny.1 mph17%30.15 "Hg10 mi
1:00 PM90 °FSunny.2 mph26%30.15 "Hg10 mi
12:30 PM88 °FSunny.1 mph25%30.15 "Hg10 mi
12:00 PM84 °FSunny.1 mph29%30.15 "Hg10 mi
11:30 AM81 °FSunny.1 mph34%30.18 "Hg10 mi
11:00 AM77 °FSunny.1 mph42%30.18 "Hg10 mi
10:30 AM73 °FSunny.1 mph50%30.18 "Hg10 mi
10:00 AM70 °FSunny.No wind50%30.18 "Hg10 mi
9:30 AM68 °FSunny.No wind49%30.18 "Hg10 mi
9:00 AM66 °FSunny.1 mph49%30.18 "Hg10 mi
8:30 AM64 °FClear.1 mph56%30.15 "Hg10 mi
8:00 AM63 °FClear.2 mph56%30.15 "Hg10 mi
7:30 AM63 °FPassing clouds.No wind56%30.15 "HgN/A
7:00 AM63 °FClear.No wind64%30.15 "Hg10 mi
Weather by CustomWeather, © 2016

See weather overviewHow to use our weather pages